User: anonymous   Login
Location: Unspecified
(0.0000°N, 0.0000°E)
Time: 09:38:06
(UTC+00:00)
Language:

Skynet 4B - Orbit

View from above orbital plane
View from above orbital plane
View from above satellite
View from above satellite

Ground track
Ground track

The orbit data is extracted from the following two-line orbital elements,

1 19687U 88109A   18017.78552829 -.00000284 +00000-0 +00000-0 0  9995
2 19687 015.3941 003.1526 0009531 265.2878 094.6320 00.99680787087541
Epoch (UTC): 17 January 2018 18:51:09
Eccentricity: 0.0009531
inclination: 15.3941°
perigee height: 35912 km
apogee height: 35993 km
right ascension of ascending node: 3.1526°
argument of perigee: 265.2878°
revolutions per day: 0.99680787
mean anomaly at epoch: 94.6320°
orbit number at epoch: 8754

The dashed part of the orbit path shows where the satellite is in the earth's shadow,  

DLR